When you browse on this site, cookies collect data to enhance your experience and personalize the content and advertising you see.
Visit our Privacy Policy to learn more. By continuing to use the site, you agree to this use of cookies and data.
  • In Hungary
  • List of Countries
  • For 7 days
  • Water Temperature
  • Satellite Maps
  • Weather Map
  • News
  • Weather Widgets
  • user-avatar
    Login

    Hourly Weather Dosmetkino

    Today, 17 November, Saturday

    Time Temperature Precipitation Wind Pressure Humidity
    00:00 -6°C° 0 mm 5 mps 764 mmHg 42%
    01:00 -5°C° 0 mm 5 mps 763 mmHg 45%
    02:00 -4°C° 0 mm 4 mps 763 mmHg 49%
    03:00 -4°C° 0 mm 4 mps 762 mmHg 52%
    04:00 -4°C° 0 mm 4 mps 762 mmHg 55%
    05:00 -4°C° 0 mm 4 mps 761 mmHg 58%
    06:00 -4°C° 0 mm 4 mps 761 mmHg 61%
    07:00 -4°C° 0 mm 4 mps 760 mmHg 63%
    08:00 -4°C° 0 mm 4 mps 760 mmHg 65%
    09:00 -4°C° 0 mm 4 mps 759 mmHg 66%
    10:00 -3°C° 0 mm 4 mps 759 mmHg 67%
    11:00 -3°C° 0 mm 4 mps 758 mmHg 67%
    12:00 -2°C° 0 mm 4 mps 758 mmHg 67%
    13:00 -2°C° 0.1 mm 4 mps 757 mmHg 68%
    14:00 -2°C° 0.1 mm 4 mps 756 mmHg 69%
    15:00 -2°C° 0.1 mm 4 mps 756 mmHg 70%
    16:00 -3°C° 0 mm 4 mps 755 mmHg 71%
    17:00 -3°C° 0 mm 4 mps 754 mmHg 71%
    18:00 -3°C° 0 mm 4 mps 754 mmHg 72%
    19:00 -3°C° 0.1 mm 4 mps 753 mmHg 75%
    20:00 -3°C° 0.1 mm 4 mps 753 mmHg 78%
    21:00 -3°C° 0.1 mm 4 mps 752 mmHg 81%
    22:00 -3°C° 0.2 mm 4 mps 751 mmHg 84%
    23:00 -3°C° 0.2 mm 4 mps 751 mmHg 86%

    Tomorrow, 18 November, Sunday

    Time Temperature Precipitation Wind Pressure Humidity
    00:00 -3°C° 0.2 mm 4 mps 750 mmHg 88%
    01:00 -3°C° 0.5 mm 4 mps 750 mmHg 90%
    02:00 -3°C° 0.5 mm 4 mps 750 mmHg 91%
    03:00 -3°C° 0.5 mm 4 mps 749 mmHg 92%
    04:00 -3°C° 0.4 mm 4 mps 749 mmHg 92%
    05:00 -3°C° 0.4 mm 4 mps 749 mmHg 92%
    06:00 -3°C° 0.4 mm 4 mps 748 mmHg 91%
    07:00 -3°C° 0.2 mm 4 mps 748 mmHg 91%
    08:00 -2°C° 0.2 mm 3 mps 749 mmHg 91%
    09:00 -2°C° 0.2 mm 3 mps 749 mmHg 90%
    10:00 -2°C° 0.1 mm 3 mps 749 mmHg 90%
    11:00 -2°C° 0.1 mm 3 mps 749 mmHg 89%
    12:00 -1°C° 0.1 mm 3 mps 749 mmHg 89%
    13:00 -1°C° 0.2 mm 3 mps 749 mmHg 90%
    14:00 -2°C° 0.2 mm 3 mps 750 mmHg 91%
    15:00 -2°C° 0.2 mm 2 mps 750 mmHg 92%
    16:00 -2°C° 0.1 mm 2 mps 750 mmHg 93%
    17:00 -2°C° 0.1 mm 2 mps 750 mmHg 94%
    18:00 -2°C° 0.1 mm 2 mps 751 mmHg 94%
    19:00 -2°C° 0.1 mm 2 mps 751 mmHg 95%
    20:00 -2°C° 0.1 mm 2 mps 751 mmHg 95%
    21:00 0°C° 0.1 mm 1 mps 751 mmHg 96%
    22:00 0°C° 0 mm 1 mps 752 mmHg 96%
    23:00 0°C° 0 mm 1 mps 752 mmHg 96%

    Day after tomorrow, 19 November, Monday

    Time Temperature Precipitation Wind Pressure Humidity
    00:00 0°C° 0 mm 1 mps 753 mmHg 96%
    01:00 0°C° 0 mm 1 mps 753 mmHg 96%
    02:00 0°C° 0 mm 1 mps 753 mmHg 96%
    03:00 0°C° 0 mm 1 mps 754 mmHg 96%
    04:00 0°C° 0 mm 1 mps 754 mmHg 96%
    05:00 0°C° 0 mm 1 mps 755 mmHg 95%
    06:00 0°C° 0 mm 1 mps 755 mmHg 95%
    07:00 0°C° 0 mm 1 mps 755 mmHg 94%
    08:00 +1°C° 0 mm 1 mps 756 mmHg 94%
    09:00 0°C° 0 mm 0 mps 756 mmHg 93%
    10:00 +1°C° 0 mm 1 mps 757 mmHg 92%
    11:00 +1°C° 0 mm 1 mps 757 mmHg 91%
    12:00 +2°C° 0 mm 1 mps 758 mmHg 90%
    13:00 +1°C° 0 mm 1 mps 758 mmHg 91%
    14:00 +1°C° 0 mm 1 mps 758 mmHg 92%
    15:00 +1°C° 0 mm 1 mps 759 mmHg 93%
    16:00 0°C° 0 mm 1 mps 759 mmHg 93%
    17:00 0°C° 0 mm 1 mps 759 mmHg 94%
    18:00 -1°C° 0 mm 1 mps 759 mmHg 94%
    19:00 -1°C° 0 mm 1 mps 760 mmHg 94%
    20:00 -1°C° 0 mm 1 mps 760 mmHg 94%
    21:00 -1°C° 0 mm 1 mps 760 mmHg 95%
    22:00 -1°C° 0 mm 1 mps 760 mmHg 95%
    23:00 -1°C° 0 mm 1 mps 760 mmHg 95%

    20 November, Tuesday

    Time Temperature Precipitation Wind Pressure Humidity
    00:00 -1°C° 0 mm 1 mps 760 mmHg 95%
    01:00 -1°C° 0 mm 1 mps 760 mmHg 95%
    02:00 -1°C° 0 mm 1 mps 761 mmHg 95%
    03:00 -3°C° 0 mm 2 mps 761 mmHg 95%
    04:00 -3°C° 0 mm 2 mps 761 mmHg 96%
    05:00 -3°C° 0 mm 2 mps 760 mmHg 96%
    06:00 -3°C° 0 mm 2 mps 760 mmHg 96%
    07:00 -2°C° 0 mm 2 mps 760 mmHg 95%
    08:00 -2°C° 0 mm 2 mps 760 mmHg 95%
    09:00 -2°C° 0 mm 2 mps 760 mmHg 94%
    10:00 -2°C° 0 mm 2 mps 760 mmHg 92%
    11:00 -1°C° 0 mm 2 mps 760 mmHg 90%
    12:00 -1°C° 0 mm 3 mps 759 mmHg 89%
    13:00 -1°C° 0 mm 3 mps 759 mmHg 89%
    14:00 -2°C° 0 mm 3 mps 758 mmHg 89%
    15:00 -2°C° 0 mm 3 mps 758 mmHg 89%
    16:00 -2°C° 0 mm 3 mps 758 mmHg 90%
    17:00 -4°C° 0 mm 3 mps 757 mmHg 92%
    18:00 -4°C° 0 mm 3 mps 757 mmHg 93%
    19:00 -4°C° 0 mm 3 mps 757 mmHg 94%
    20:00 -5°C° 0 mm 3 mps 756 mmHg 95%
    21:00 -5°C° 0 mm 3 mps 756 mmHg 95%
    22:00 -5°C° 0 mm 3 mps 756 mmHg 95%
    23:00 -5°C° 0 mm 3 mps 755 mmHg 96%

    21 November, Wednesday

    Time Temperature Precipitation Wind Pressure Humidity
    00:00 -6°C° 0 mm 3 mps 755 mmHg 96%
    01:00 -6°C° 0 mm 3 mps 754 mmHg 96%
    02:00 -6°C° 0 mm 3 mps 754 mmHg 96%
    03:00 -6°C° 0 mm 3 mps 754 mmHg 96%
    04:00 -6°C° 0 mm 3 mps 753 mmHg 95%
    05:00 -6°C° 0 mm 3 mps 753 mmHg 95%
    06:00 -6°C° 0 mm 3 mps 753 mmHg 95%
    07:00 -6°C° 0 mm 3 mps 752 mmHg 93%
    08:00 -5°C° 0 mm 3 mps 752 mmHg 90%
    09:00 -5°C° 0 mm 3 mps 752 mmHg 88%
    10:00 -5°C° 0 mm 4 mps 751 mmHg 86%
    11:00 -4°C° 0 mm 4 mps 751 mmHg 84%
    12:00 -4°C° 0 mm 4 mps 751 mmHg 82%
    13:00 -4°C° 0 mm 4 mps 750 mmHg 83%
    14:00 -4°C° 0 mm 4 mps 750 mmHg 84%
    15:00 -4°C° 0 mm 4 mps 750 mmHg 85%
    16:00 -4°C° 0 mm 4 mps 750 mmHg 86%
    17:00 -5°C° 0 mm 4 mps 750 mmHg 87%
    18:00 -5°C° 0 mm 4 mps 750 mmHg 89%
    19:00 -5°C° 0.1 mm 4 mps 750 mmHg 89%
    20:00 -5°C° 0.1 mm 3 mps 750 mmHg 89%
    21:00 -4°C° 0.1 mm 3 mps 750 mmHg 89%
    22:00 -5°C° 0 mm 3 mps 750 mmHg 89%
    23:00 -5°C° 0 mm 3 mps 750 mmHg 89%

    22 November, Thursday

    Time Temperature Precipitation Wind Pressure Humidity
    00:00 -5°C° 0 mm 2 mps 750 mmHg 88%
    01:00 -5°C° 0 mm 2 mps 750 mmHg 89%
    02:00 -7°C° 0 mm 3 mps 750 mmHg 89%
    03:00 -7°C° 0 mm 3 mps 750 mmHg 89%
    04:00 -8°C° 0 mm 3 mps 749 mmHg 90%
    05:00 -8°C° 0 mm 3 mps 749 mmHg 91%
    06:00 -8°C° 0 mm 2 mps 749 mmHg 92%
    07:00 -9°C° 0 mm 3 mps 749 mmHg 91%
    08:00 -9°C° 0 mm 3 mps 749 mmHg 91%
    09:00 -9°C° 0 mm 3 mps 749 mmHg 90%
    10:00 -8°C° 0 mm 3 mps 749 mmHg 88%
    11:00 -8°C° 0 mm 4 mps 749 mmHg 86%
    12:00 -8°C° 0 mm 4 mps 748 mmHg 83%
    13:00 -8°C° 0 mm 4 mps 748 mmHg 84%
    14:00 -8°C° 0 mm 5 mps 748 mmHg 86%
    15:00 -8°C° 0 mm 5 mps 747 mmHg 87%
    16:00 -7°C° 0.1 mm 5 mps 747 mmHg 86%
    17:00 -7°C° 0.1 mm 5 mps 747 mmHg 86%
    18:00 -8°C° 0.1 mm 6 mps 746 mmHg 86%
    19:00 -7°C° 0.1 mm 5 mps 746 mmHg 86%
    20:00 -7°C° 0.1 mm 5 mps 746 mmHg 87%
    21:00 -7°C° 0.1 mm 5 mps 747 mmHg 87%
    22:00 -7°C° 0 mm 5 mps 747 mmHg 88%
    23:00 -7°C° 0 mm 4 mps 747 mmHg 89%
    Show more